カタログに戻る

STARLINK-35364

運用中通信VLEO
NORAD 65840·PAYLOAD·🇺🇸 United States

打ち上げ Sep 29, 2025 から Vandenberg Space Force Base

Loading…

次のパス (今後24時間)

TLE

最新Source: CelesTrak SupGP

元期: Sep 15, 2026, 04:07 UTC

1 65840C 25221T   26258.17201389 -.00015635  00000+0 -46184-3 0  2584
2 65840  53.1587 284.2778 0001388  90.5581 120.9754 15.34404456    15

AllMySatでSTARLINK-35364をリアルタイム追跡

Download on the App Store